Tracking 19651 objects as of 23-Apr-2019
HD Live streaming from Space Station
objects crossing your sky now

FLOCK 4A 6

Track FLOCK 4A 6 now!
10-day predictions
FLOCK 4A 6 is classified as:


NORAD ID: 44094
Int'l Code: 2019-018S
Perigee: 500.0 km
Apogee: 514.6 km
Inclination: 97.5 °
Period: 94.6 minutes
Semi major axis: 6878 km
RCS: Unknown
Launch date: April 1, 2019
Source: United States (US)
Launch site: SRIHARIKOTA (SRI)
aabbcc
Your satellite tracking list
Your tracking list is empty




NASA's NSSDC Master Catalog

Two Line Element Set (TLE):
1 44094U 19018S   19112.70740527  .00000902  00000-0  42699-4 0  9991
2 44094  97.4624 173.0932 0010618 207.7373 152.3298 15.21878470  3258
Source of the keplerian elements: AFSPC